Volver al catálogo

COSMOS 970 DEB

ActivoLEO
NORAD 10577·DEBRIS·🇷🇺 Russia

Lanzado Dec 21, 1977 desde Baikonur Cosmodrome

Loading…

Próximos Pases (próximas 24 horas)

TLE

ActualizadoSource: Space-Track

Época: Sep 14, 2026, 03:58 UTC

1 10577U 77121U   26257.16574257  .00000058  00000-0  14760-3 0  9991
2 10577  65.7943 134.6627 0143124 269.0684 172.2574 13.69211931429992

Sigue COSMOS 970 DEB en tiempo real con AllMySat

Download on the App Store